If you wish to contribute or participate in the discussions about articles you are invited to join SKYbrary as a registered user

 Actions

Arctic Village Airport

From SKYbrary Wiki

PARC
Airport
ICAO: PARC – IATA: ARC
Summary
Name Arctic Village Airport
Region North America
Territory Alaska US.gif
Location , Alaska
Serving Arctic Village
Elevation 637.642 m
2,092 ft
2,092 ft637.642 m
Type medium airport
Coordinates 68° 6' 52.92", -145° 34' 44.4"
Runways
Designator Length Width Surface ROPS
2/20 1372 m4,501.312 ft 23 m75.459 ft GVL /


METAR
Observation PARC 241156Z AUTO 00000KT 10SM CLR M26/M28 A2947 RMK AO2 SLP055 T12561278 11200 21289 58026 FZRANO
Station Arctic Village, Arctic Village Airport
Date/Time 24 February 2018 11:56:00
Wind direction
Wind speed 00 kts
Lowest cloud amount n/a
Temperature
Dew point
Humidity 81%
QNH hPa
Weather condition n/a